+ View the NASA Portal
+ Center for Near-Earth Object Studies
JPL Small-Body Database Browser
Search:
[
help
]
117998 (1095 T-2)
Classification:
Main-belt Asteroid
SPK-ID:
2117998
[
Ephemeris
|
Orbit Diagram
|
Orbital Elements
|
Mission Design
|
Physical Parameters
|
Discovery Circumstances
|
Close-Approach Data
]
[ show orbit diagram ]
Orbital Elements at Epoch 2459000.5 (2020-May-31.0) TDB
Reference:
JPL 16
(heliocentric ecliptic J2000)
Element
Value
Uncertainty (1-sigma)
Units
e
.1078510165447016
6.3095e-08
a
2.580727917967048
1.6722e-08
au
q
2.30239378858901
1.5277e-07
au
i
7.828325767746986
5.0072e-06
deg
node
183.0689311917167
3.6073e-05
deg
peri
159.2783694684005
4.5699e-05
deg
M
110.1085141552658
3.1506e-05
deg
t
p
2458537.340945991374
(2019-Feb-22.84094599)
0.00012989
TDB
period
1514.299422912805
4.15
1.4718e-05
4.03e-08
d
yr
n
.2377336968850771
2.3106e-09
deg/d
Q
2.859062047345085
1.8525e-08
au
Orbit Determination Parameters
# obs. used (total)
516
data-arc span
16931 days (46.35 yr)
first obs. used
1973-09-19
last obs. used
2020-01-27
planetary ephem.
DE431
SB-pert. ephem.
SB431-N16
condition code
0
norm. resid. RMS
.51019
source
ORB
producer
Otto Matic
solution date
2020-Feb-24 05:52:45
Additional Information
Earth MOID
= 1.29674 au
Jupiter MOID
= 2.54303 au
T_jup
= 3.403
[ hide covariance matrix ]
Orbital Elements at Epoch 2457292.5 (2015-Sep-27.0) TDB
Reference:
JPL 16
(heliocentric ecliptic J2000)
Element
Value
Uncertainty (1-sigma)
Units
e
.1092999409949016
6.3372e-08
q
2.297653090315849
1.5373e-07
au
t
p
2457020.375240637248
(2014-Dec-28.87524064)
0.00012017
TDB
node
183.1099575533898
3.6034e-05
deg
peri
158.5620415844832
4.5426e-05
deg
i
7.832830729722032
5.01e-06
deg
Orbit Determination Parameters
# obs. used (total)
516
data-arc span
16931 days (46.35 yr)
first obs. used
1973-09-19
last obs. used
2020-01-27
planetary ephem.
DE431
SB-pert. ephem.
SB431-N16
condition code
0
norm. resid. RMS
.51019
source
ORB
producer
Otto Matic
solution date
2020-Feb-24 05:52:45
Additional Information
Jupiter MOID
= 2.54303 au
T_jup
= 3.403
Orbit Covariance (6×6)
e
q
tp
node
peri
i
e
4.01606439391573E-15
-9.71842649447221E-15
3.554447542895346E-12
-2.13950200778299E-16
6.903833693986989E-13
-7.831126533886368E-15
q
-9.71842649447221E-15
2.363183740950853E-14
-8.27397196366112E-12
1.947588110647545E-15
-1.590118517614004E-12
1.882101239801624E-14
tp
3.554447542895346E-12
-8.27397196366112E-12
1.444047551202468E-8
4.102312690026566E-11
3.339463444174639E-9
-1.965420795394416E-11
node
-2.13950200778299E-16
1.947588110647545E-15
4.102312690026566E-11
1.298419773485447E-9
-1.276035736924042E-9
4.97957056742006E-11
peri
6.903833693986989E-13
-1.590118517614004E-12
3.339463444174639E-9
-1.276035736924042E-9
2.063493640724899E-9
-5.383176318935061E-11
i
-7.831126533886368E-15
1.882101239801624E-14
-1.965420795394416E-11
4.97957056742006E-11
-5.383176318935061E-11
2.509970923816266E-11
[
Ephemeris
|
Orbit Diagram
|
Orbital Elements
|
Mission Design
|
Physical Parameters
|
Discovery Circumstances
|
Close-Approach Data
]
Physical Parameter Table
Parameter
Symbol
Value
Units
Sigma
Reference
Notes
absolute magnitude
H
15.9
n/a
MPO502792
117998 (1095 T-2)
Discovered 1973-Sep-29 by van Houten, C. J., van Houten-Groeneveld, I., Gehrels, T. at Palomar
Reference:
20051019/Numbers.arc
Last Updated:
2005-10-26
[ show close-approach data ]
Alternate Designations
1095 T-2
= 2001 HE
[
Ephemeris
|
Orbit Diagram
|
Orbital Elements
|
Mission Design
|
Physical Parameters
|
Discovery Circumstances
|
Close-Approach Data
]
2021-Jan-22 23:32 UT
(server date/time)
Site Manager:
Ryan S. Park
Webmaster
:
Alan B. Chamberlin